QPF
0.00 0.00 0.00 0.00 0.01 0.01 0.01 0.02 0.01 0.01 0.02 0.03 0.04 0.04 0.05 0.03 0.03 0.03 0.03 0.03 0.03 0.04 0.05 0.04 0.06 0.06 0.07 0.06 0.06 0.07 0.08 0.07 0.07 0.08 0.06 0.05 0.05 0.04 0.04 0.05 0.05 0.05 0.06
0.00 0.00 0.00 0.00 0.01 0.01 0.01 0.01 0.02 0.02 0.02 0.03 0.04 0.05 0.04 0.02 0.03 0.04 0.04 0.03 0.04 0.04 0.04 0.06 0.05 0.05 0.06 0.06 0.06 0.07 0.07 0.06 0.09 0.10 0.09 0.07 0.07 0.05 0.04 0.03 0.03 0.04 0.06
0.00 0.00 0.00 0.00 0.01 0.01 0.01 0.01 0.02 0.02 0.04 0.04 0.03 0.04 0.05 0.05 0.05 0.07 0.07 0.04 0.03 0.02 0.03 0.04 0.05 0.05 0.06 0.07 0.06 0.06 0.07 0.09 0.09 0.08 0.09 0.09 0.10 0.07 0.04 0.02 0.02 0.03 0.04
0.00 0.00 0.00 0.01 0.00 0.00 0.00 0.01 0.01 0.02 0.04 0.04 0.03 0.04 0.05 0.06 0.06 0.07 0.07 0.04 0.03 0.03 0.03 0.03 0.05 0.07 0.07 0.08 0.06 0.06 0.05 0.07 0.07 0.06 0.06 0.07 0.09 0.08 0.07 0.06 0.04 0.05 0.06
0.00 0.00 0.01 0.01 0.00 0.00 0.00 0.01 0.02 0.02 0.03 0.02 0.03 0.04 0.05 0.04 0.05 0.06 0.06 0.05 0.05 0.04 0.03 0.03 0.04 0.05 0.07 0.07 0.06 0.06 0.04 0.04 0.05 0.04 0.04 0.06 0.07 0.07 0.08 0.09 0.08 0.08 0.07
0.00 0.01 0.01 0.02 0.02 0.01 0.00 0.01 0.02 0.02 0.02 0.02 0.03 0.04 0.04 0.05 0.05 0.05 0.06 0.05 0.05 0.05 0.04 0.05 0.05 0.05 0.06 0.07 0.05 0.05 0.05 0.05 0.04 0.04 0.03 0.04 0.06 0.07 0.08 0.07 0.08 0.08 0.07
0.00 0.01 0.01 0.01 0.03 0.03 0.01 0.02 0.02 0.02 0.02 0.02 0.02 0.03 0.04 0.05 0.04 0.04 0.04 0.04 0.03 0.03 0.04 0.04 0.04 0.04 0.04 0.05 0.06 0.06 0.07 0.05 0.04 0.04 0.05 0.05 0.05 0.07 0.07 0.07 0.07 0.07 0.06
0.01 0.01 0.01 0.02 0.02 0.01 0.02 0.01 0.01 0.01 0.01 0.01 0.01 0.02 0.02 0.03 0.03 0.03 0.03 0.03 0.02 0.02 0.01 0.02 0.03 0.04 0.04 0.04 0.06 0.06 0.07 0.06 0.05 0.04 0.06 0.05 0.05 0.05 0.06 0.07 0.08 0.07 0.07
0.02 0.01 0.02 0.02 0.02 0.01 0.01 0.01 0.01 0.01 0.01 0.01 0.01 0.01 0.01 0.01 0.02 0.02 0.02 0.02 0.02 0.01 0.01 0.02 0.04 0.05 0.04 0.05 0.06 0.06 0.07 0.07 0.07 0.05 0.05 0.05 0.05 0.04 0.04 0.06 0.07 0.08 0.08
0.02 0.03 0.04 0.02 0.01 0.01 0.01 0.01 0.02 0.02 0.02 0.01 0.01 0.01 0.00 0.01 0.01 0.01 0.01 0.01 0.02 0.02 0.02 0.02 0.04 0.05 0.04 0.06 0.06 0.04 0.05 0.05 0.05 0.05 0.06 0.06 0.05 0.04 0.04 0.05 0.07 0.08 0.08
0.01 0.02 0.02 0.02 0.01 0.01 0.01 0.02 0.02 0.02 0.02 0.02 0.01 0.01 0.00 0.00 0.01 0.02 0.01 0.01 0.03 0.03 0.02 0.02 0.03 0.04 0.04 0.04 0.05 0.04 0.04 0.05 0.04 0.04 0.04 0.04 0.04 0.05 0.04 0.04 0.05 0.06 0.09
0.01 0.01 0.02 0.02 0.01 0.01 0.01 0.01 0.01 0.02 0.02 0.02 0.01 0.01 0.01 0.01 0.02 0.03 0.03 0.03 0.04 0.05 0.04 0.03 0.04 0.04 0.03 0.03 0.04 0.04 0.05 0.05 0.04 0.03 0.05 0.07 0.07 0.06 0.06 0.05 0.04 0.06 0.08
0.01 0.01 0.01 0.01 0.01 0.00 0.00 0.00 0.01 0.01 0.01 0.02 0.02 0.01 0.01 0.01 0.01 0.02 0.03 0.03 0.03 0.04 0.05 0.06 0.06 0.06 0.05 0.04 0.04 0.04 0.05 0.05 0.05 0.06 0.06 0.07 0.08 0.06 0.05 0.05 0.05 0.05 0.05
0.01 0.01 0.01 0.01 0.00 0.00 0.00 0.00 0.00 0.00 0.00 0.01 0.01 0.01 0.01 0.01 0.01 0.01 0.02 0.02 0.02 0.03 0.04 0.05 0.06 0.06 0.04 0.04 0.04 0.04 0.04 0.05 0.05 0.07 0.08 0.07 0.07 0.07 0.07 0.06 0.05 0.05 0.05
0.01 0.02 0.02 0.02 0.01 0.00 0.00 0.00 0.00 0.00 0.00 0.00 0.01 0.01 0.01 0.01 0.01 0.01 0.01 0.01 0.02 0.02 0.03 0.04 0.05 0.06 0.05 0.04 0.03 0.03 0.04 0.04 0.04 0.05 0.06 0.07 0.07 0.08 0.09 0.07 0.05 0.05 0.05
0.01 0.01 0.02 0.02 0.01 0.00 0.01 0.01 0.01 0.01 0.00 0.00 0.00 0.01 0.01 0.01 0.01 0.01 0.01 0.02 0.02 0.03 0.04 0.04 0.05 0.05 0.04 0.04 0.04 0.03 0.03 0.04 0.03 0.03 0.04 0.04 0.04 0.06 0.06 0.05 0.05 0.05 0.05
0.01 0.01 0.02 0.03 0.02 0.01 0.01 0.02 0.02 0.01 0.00 0.00 0.00 0.00 0.01 0.01 0.01 0.01 0.01 0.01 0.02 0.04 0.04 0.04 0.03 0.03 0.03 0.03 0.04 0.04 0.03 0.04 0.04 0.03 0.03 0.02 0.02 0.03 0.03 0.03 0.03 0.03 0.03
0.02 0.03 0.03 0.03 0.03 0.03 0.03 0.03 0.02 0.01 0.01 0.01 0.01 0.00 0.00 0.01 0.01 0.01 0.02 0.02 0.03 0.04 0.05 0.04 0.03 0.03 0.04 0.04 0.03 0.04 0.03 0.04 0.04 0.04 0.04 0.03 0.03 0.03 0.05 0.05 0.04 0.04 0.04
0.02 0.04 0.03 0.04 0.03 0.02 0.02 0.02 0.02 0.01 0.01 0.01 0.01 0.01 0.00 0.00 0.01 0.01 0.01 0.02 0.03 0.03 0.04 0.05 0.05 0.06 0.06 0.05 0.03 0.03 0.02 0.03 0.04 0.04 0.05 0.04 0.04 0.04 0.06 0.06 0.04 0.04 0.03
0.01 0.01 0.01 0.02 0.01 0.01 0.01 0.02 0.02 0.02 0.01 0.01 0.01 0.01 0.01 0.01 0.01 0.01 0.01 0.02 0.03 0.03 0.05 0.05 0.06 0.07 0.07 0.06 0.05 0.04 0.03 0.03 0.03 0.04 0.06 0.06 0.05 0.05 0.06 0.06 0.06 0.05 0.04
0.00 0.01 0.02 0.03 0.03 0.01 0.01 0.03 0.04 0.04 0.02 0.02 0.01 0.01 0.02 0.02 0.02 0.02 0.02 0.03 0.02 0.02 0.03 0.05 0.06 0.07 0.07 0.08 0.07 0.05 0.04 0.03 0.03 0.03 0.05 0.05 0.03 0.03 0.05 0.06 0.06 0.05 0.05
0.01 0.01 0.01 0.03 0.02 0.01 0.01 0.03 0.04 0.04 0.04 0.03 0.03 0.03 0.03 0.02 0.02 0.03 0.03 0.03 0.03 0.03 0.04 0.05 0.05 0.05 0.06 0.06 0.04 0.04 0.03 0.03 0.03 0.04 0.03 0.04 0.03 0.03 0.03 0.03 0.03 0.03 0.03
0.01 0.01 0.01 0.02 0.01 0.01 0.01 0.03 0.03 0.04 0.04 0.04 0.04 0.04 0.03 0.03 0.03 0.03 0.03 0.04 0.03 0.03 0.04 0.05 0.04 0.04 0.05 0.05 0.03 0.03 0.03 0.02 0.03 0.03 0.03 0.04 0.04 0.04 0.03 0.02 0.02 0.02 0.03
0.01 0.01 0.02 0.02 0.02 0.01 0.02 0.02 0.03 0.03 0.03 0.03 0.02 0.02 0.02 0.02 0.02 0.03 0.03 0.03 0.03 0.03 0.03 0.03 0.03 0.04 0.04 0.04 0.03 0.03 0.02 0.02 0.02 0.02 0.03 0.03 0.03 0.04 0.04 0.03 0.03 0.03 0.04
0.01 0.01 0.02 0.02 0.02 0.02 0.02 0.02 0.03 0.03 0.03 0.02 0.02 0.01 0.01 0.01 0.01 0.02 0.02 0.02 0.03 0.02 0.02 0.02 0.04 0.04 0.03 0.03 0.03 0.04 0.03 0.02 0.01 0.02 0.03 0.05 0.05 0.04 0.04 0.04 0.05 0.04 0.04
0.01 0.01 0.02 0.03 0.03 0.02 0.02 0.03 0.04 0.04 0.04 0.03 0.03 0.02 0.01 0.01 0.02 0.02 0.03 0.03 0.03 0.03 0.03 0.03 0.02 0.02 0.02 0.03 0.03 0.03 0.02 0.02 0.01 0.02 0.03 0.04 0.04 0.04 0.03 0.04 0.04 0.04 0.03
MSLP
1007.46 1007.31 1007.19 1007.13 1007.17 1007.32 1007.59 1007.95 1008.37 1008.82 1009.25 1009.63 1009.94 1010.18 1010.39 1010.57 1010.76 1010.97 1011.21 1011.45 1011.68 1011.86 1011.98 1012.01 1011.97 1011.87 1011.74 1011.61 1011.50 1011.43 1011.40 1011.43 1011.48 1011.57 1011.67 1011.79 1011.93 1012.11 1012.34 1012.61 1012.93 1013.27 1013.62
1006.98 1006.94 1006.92 1006.93 1006.99 1007.14 1007.39 1007.73 1008.15 1008.60 1009.07 1009.51 1009.89 1010.22 1010.50 1010.74 1010.98 1011.22 1011.47 1011.74 1011.99 1012.21 1012.37 1012.45 1012.46 1012.40 1012.29 1012.17 1012.06 1011.98 1011.95 1011.98 1012.04 1012.14 1012.26 1012.39 1012.54 1012.71 1012.91 1013.14 1013.40 1013.69 1014.00
1006.28 1006.40 1006.51 1006.62 1006.75 1006.93 1007.17 1007.50 1007.90 1008.36 1008.85 1009.33 1009.77 1010.17 1010.52 1010.83 1011.11 1011.40 1011.70 1011.99 1012.29 1012.55 1012.77 1012.92 1012.99 1012.98 1012.92 1012.83 1012.73 1012.66 1012.63 1012.64 1012.71 1012.81 1012.93 1013.07 1013.21 1013.36 1013.52 1013.70 1013.90 1014.14 1014.39
1005.36 1005.63 1005.89 1006.12 1006.34 1006.57 1006.84 1007.16 1007.56 1008.03 1008.53 1009.05 1009.55 1010.02 1010.44 1010.82 1011.18 1011.52 1011.87 1012.22 1012.57 1012.90 1013.18 1013.40 1013.54 1013.60 1013.60 1013.55 1013.48 1013.41 1013.38 1013.40 1013.45 1013.55 1013.66 1013.79 1013.91 1014.03 1014.15 1014.27 1014.42 1014.58 1014.78
1004.22 1004.62 1005.01 1005.37 1005.69 1005.98 1006.29 1006.64 1007.05 1007.53 1008.07 1008.64 1009.21 1009.76 1010.27 1010.74 1011.18 1011.60 1012.01 1012.43 1012.84 1013.23 1013.58 1013.87 1014.08 1014.21 1014.26 1014.26 1014.22 1014.18 1014.16 1014.17 1014.22 1014.30 1014.40 1014.51 1014.61 1014.69 1014.77 1014.84 1014.91 1015.01 1015.13
1002.91 1003.38 1003.87 1004.32 1004.73 1005.10 1005.46 1005.86 1006.31 1006.85 1007.45 1008.09 1008.76 1009.41 1010.03 1010.61 1011.14 1011.64 1012.13 1012.61 1013.07 1013.52 1013.93 1014.28 1014.55 1014.74 1014.85 1014.89 1014.89 1014.87 1014.87 1014.88 1014.93 1015.01 1015.10 1015.19 1015.26 1015.31 1015.34 1015.36 1015.38 1015.40 1015.46
1001.52 1002.00 1002.52 1003.03 1003.49 1003.93 1004.37 1004.83 1005.37 1005.99 1006.69 1007.45 1008.23 1009.01 1009.75 1010.44 1011.07 1011.66 1012.22 1012.75 1013.26 1013.75 1014.19 1014.58 1014.90 1015.14 1015.29 1015.37 1015.41 1015.43 1015.44 1015.47 1015.53 1015.61 1015.69 1015.77 1015.83 1015.86 1015.86 1015.83 1015.79 1015.76 1015.75
1000.19 1000.60 1001.09 1001.60 1002.10 1002.59 1003.10 1003.66 1004.31 1005.04 1005.87 1006.77 1007.69 1008.60 1009.47 1010.27 1011.00 1011.66 1012.27 1012.83 1013.37 1013.88 1014.34 1014.75 1015.09 1015.36 1015.55 1015.67 1015.74 1015.79 1015.84 1015.90 1015.97 1016.07 1016.17 1016.26 1016.31 1016.33 1016.31 1016.25 1016.18 1016.10 1016.04
999.07 999.36 999.76 1000.23 1000.72 1001.25 1001.83 1002.49 1003.25 1004.13 1005.10 1006.14 1007.20 1008.24 1009.23 1010.12 1010.92 1011.64 1012.28 1012.86 1013.40 1013.91 1014.37 1014.78 1015.13 1015.41 1015.62 1015.77 1015.88 1015.97 1016.06 1016.15 1016.27 1016.39 1016.52 1016.63 1016.71 1016.73 1016.71 1016.64 1016.55 1016.43 1016.33
998.32 998.46 998.74 999.11 999.57 1000.10 1000.74 1001.49 1002.37 1003.38 1004.49 1005.67 1006.85 1008.00 1009.07 1010.03 1010.87 1011.60 1012.25 1012.83 1013.36 1013.84 1014.30 1014.70 1015.05 1015.34 1015.57 1015.75 1015.89 1016.02 1016.14 1016.28 1016.44 1016.61 1016.78 1016.93 1017.03 1017.09 1017.08 1017.02 1016.92 1016.79 1016.66
998.07 998.05 998.18 998.45 998.83 999.35 1000.01 1000.83 1001.81 1002.93 1004.15 1005.43 1006.70 1007.91 1009.02 1010.00 1010.85 1011.57 1012.20 1012.76 1013.27 1013.74 1014.17 1014.57 1014.92 1015.23 1015.47 1015.68 1015.85 1016.01 1016.17 1016.35 1016.56 1016.77 1016.98 1017.17 1017.32 1017.41 1017.43 1017.39 1017.29 1017.16 1017.01
998.35 998.18 998.16 998.30 998.60 999.07 999.73 1000.59 1001.63 1002.82 1004.11 1005.44 1006.74 1007.97 1009.07 1010.04 1010.86 1011.55 1012.15 1012.69 1013.18 1013.64 1014.07 1014.48 1014.84 1015.16 1015.43 1015.66 1015.85 1016.04 1016.23 1016.44 1016.67 1016.92 1017.17 1017.40 1017.59 1017.71 1017.77 1017.75 1017.67 1017.54 1017.38
999.09 998.81 998.66 998.67 998.87 999.28 999.91 1000.76 1001.82 1003.03 1004.34 1005.67 1006.96 1008.15 1009.22 1010.13 1010.90 1011.56 1012.12 1012.64 1013.13 1013.59 1014.05 1014.47 1014.87 1015.21 1015.50 1015.75 1015.96 1016.15 1016.35 1016.57 1016.82 1017.08 1017.35 1017.61 1017.83 1017.98 1018.06 1018.07 1018.00 1017.88 1017.72
1000.18 999.80 999.54 999.44 999.53 999.86 1000.44 1001.26 1002.29 1003.48 1004.76 1006.05 1007.28 1008.41 1009.41 1010.25 1010.97 1011.58 1012.12 1012.64 1013.14 1013.63 1014.12 1014.59 1015.02 1015.40 1015.71 1015.97 1016.19 1016.38 1016.56 1016.77 1017.00 1017.26 1017.53 1017.79 1018.02 1018.20 1018.30 1018.32 1018.27 1018.15 1017.98
1001.42 1000.98 1000.63 1000.43 1000.43 1000.67 1001.17 1001.93 1002.91 1004.05 1005.26 1006.48 1007.63 1008.68 1009.59 1010.37 1011.03 1011.61 1012.15 1012.68 1013.21 1013.75 1014.29 1014.81 1015.28 1015.70 1016.03 1016.29 1016.50 1016.67 1016.83 1017.00 1017.20 1017.43 1017.68 1017.93 1018.15 1018.33 1018.44 1018.47 1018.42 1018.30 1018.13
1002.63 1002.16 1001.73 1001.45 1001.35 1001.51 1001.94 1002.62 1003.53 1004.59 1005.72 1006.86 1007.93 1008.89 1009.73 1010.45 1011.08 1011.64 1012.19 1012.74 1013.31 1013.90 1014.50 1015.07 1015.59 1016.03 1016.38 1016.64 1016.83 1016.97 1017.09 1017.22 1017.38 1017.57 1017.78 1018.00 1018.21 1018.38 1018.48 1018.51 1018.46 1018.34 1018.15
1003.67 1003.17 1002.70 1002.34 1002.17 1002.25 1002.60 1003.21 1004.03 1005.01 1006.07 1007.12 1008.12 1009.02 1009.80 1010.48 1011.08 1011.65 1012.21 1012.79 1013.40 1014.04 1014.68 1015.30 1015.85 1016.31 1016.67 1016.93 1017.10 1017.22 1017.30 1017.39 1017.50 1017.64 1017.81 1018.00 1018.18 1018.33 1018.42 1018.44 1018.38 1018.25 1018.05
1004.45 1003.93 1003.42 1003.02 1002.79 1002.81 1003.08 1003.61 1004.36 1005.27 1006.25 1007.24 1008.18 1009.03 1009.78 1010.44 1011.04 1011.62 1012.20 1012.80 1013.45 1014.11 1014.78 1015.42 1015.99 1016.47 1016.83 1017.09 1017.25 1017.35 1017.41 1017.47 1017.54 1017.65 1017.79 1017.94 1018.10 1018.22 1018.29 1018.29 1018.22 1018.06 1017.84
1004.96 1004.44 1003.92 1003.48 1003.21 1003.17 1003.38 1003.85 1004.53 1005.37 1006.29 1007.23 1008.13 1008.95 1009.69 1010.36 1010.96 1011.55 1012.14 1012.76 1013.42 1014.09 1014.77 1015.41 1015.98 1016.46 1016.83 1017.09 1017.26 1017.36 1017.42 1017.47 1017.53 1017.61 1017.73 1017.85 1017.97 1018.07 1018.11 1018.08 1017.99 1017.81 1017.56
1005.26 1004.75 1004.23 1003.78 1003.48 1003.40 1003.56 1003.96 1004.58 1005.35 1006.22 1007.12 1008.00 1008.81 1009.56 1010.23 1010.85 1011.45 1012.05 1012.67 1013.32 1013.98 1014.64 1015.26 1015.83 1016.31 1016.68 1016.96 1017.15 1017.27 1017.35 1017.41 1017.48 1017.55 1017.65 1017.75 1017.83 1017.89 1017.90 1017.84 1017.71 1017.50 1017.22
1005.43 1004.96 1004.45 1004.00 1003.69 1003.56 1003.67 1004.01 1004.56 1005.27 1006.10 1006.96 1007.82 1008.64 1009.40 1010.09 1010.73 1011.34 1011.94 1012.55 1013.18 1013.81 1014.44 1015.04 1015.59 1016.06 1016.46 1016.76 1016.99 1017.15 1017.26 1017.35 1017.42 1017.49 1017.57 1017.63 1017.68 1017.69 1017.65 1017.55 1017.37 1017.13 1016.82
1005.54 1005.11 1004.64 1004.20 1003.88 1003.72 1003.77 1004.04 1004.52 1005.17 1005.94 1006.77 1007.62 1008.44 1009.21 1009.93 1010.59 1011.22 1011.82 1012.42 1013.02 1013.63 1014.22 1014.80 1015.33 1015.81 1016.22 1016.56 1016.82 1017.03 1017.17 1017.28 1017.37 1017.43 1017.48 1017.50 1017.50 1017.45 1017.35 1017.19 1016.97 1016.68 1016.34
1005.62 1005.25 1004.82 1004.40 1004.07 1003.87 1003.87 1004.06 1004.47 1005.04 1005.75 1006.55 1007.38 1008.21 1009.01 1009.75 1010.45 1011.10 1011.71 1012.31 1012.89 1013.47 1014.04 1014.60 1015.12 1015.60 1016.03 1016.40 1016.70 1016.94 1017.11 1017.23 1017.31 1017.34 1017.34 1017.31 1017.23 1017.11 1016.95 1016.74 1016.47 1016.15 1015.79
1005.65 1005.35 1004.97 1004.57 1004.23 1004.00 1003.93 1004.04 1004.36 1004.87 1005.51 1006.27 1007.09 1007.94 1008.76 1009.55 1010.29 1010.97 1011.62 1012.23 1012.81 1013.38 1013.94 1014.48 1015.00 1015.49 1015.92 1016.31 1016.63 1016.87 1017.05 1017.16 1017.21 1017.19 1017.12 1017.01 1016.86 1016.66 1016.43 1016.16 1015.86 1015.52 1015.16
1005.59 1005.36 1005.03 1004.65 1004.30 1004.03 1003.89 1003.93 1004.17 1004.60 1005.19 1005.92 1006.74 1007.60 1008.46 1009.30 1010.10 1010.84 1011.53 1012.17 1012.78 1013.36 1013.92 1014.45 1014.97 1015.45 1015.88 1016.26 1016.57 1016.81 1016.96 1017.02 1017.01 1016.93 1016.78 1016.58 1016.34 1016.08 1015.79 1015.48 1015.16 1014.83 1014.49
1005.36 1005.20 1004.92 1004.56 1004.20 1003.90 1003.71 1003.68 1003.86 1004.23 1004.78 1005.48 1006.31 1007.20 1008.11 1009.02 1009.88 1010.70 1011.44 1012.13 1012.77 1013.37 1013.94 1014.47 1014.97 1015.44 1015.85 1016.20 1016.48 1016.67 1016.77 1016.77 1016.68 1016.52 1016.29 1016.01 1015.71 1015.39 1015.06 1014.75 1014.44 1014.14 1013.84
Thickness
5843 5842 5839 5836 5829 5823 5818 5815 5811 5809 5806 5802 5799 5796 5794 5795 5794 5792 5789 5787 5785 5784 5783 5782 5781 5780 5778 5777 5776 5774 5773 5773 5773 5769 5767 5770 5774 5773 5773 5771 5770 5769 5767
5842 5839 5838 5835 5830 5824 5819 5815 5812 5809 5806 5804 5802 5799 5797 5795 5794 5791 5789 5787 5786 5784 5784 5781 5780 5779 5777 5776 5774 5773 5770 5771 5772 5766 5760 5757 5760 5767 5772 5770 5768 5767 5767
5842 5838 5837 5835 5832 5825 5821 5819 5814 5811 5808 5806 5803 5801 5797 5794 5791 5787 5786 5786 5785 5784 5782 5781 5779 5778 5777 5774 5773 5772 5769 5766 5768 5769 5761 5753 5749 5755 5763 5766 5766 5765 5763
5849 5843 5839 5836 5833 5829 5826 5822 5817 5813 5809 5807 5803 5797 5791 5787 5787 5787 5785 5785 5784 5783 5781 5779 5778 5776 5775 5773 5772 5771 5770 5767 5764 5766 5766 5763 5759 5750 5749 5756 5761 5761 5758
5853 5847 5843 5839 5838 5834 5829 5824 5818 5813 5810 5807 5804 5798 5794 5792 5790 5788 5784 5783 5783 5781 5780 5778 5776 5774 5772 5771 5770 5769 5768 5766 5763 5762 5762 5761 5759 5757 5748 5743 5749 5754 5755
5855 5851 5848 5843 5838 5836 5831 5825 5817 5812 5810 5806 5803 5799 5794 5791 5788 5784 5782 5781 5781 5780 5778 5776 5774 5772 5771 5769 5768 5766 5765 5763 5762 5760 5759 5756 5753 5749 5748 5743 5743 5745 5749
5855 5849 5845 5841 5836 5833 5830 5825 5817 5811 5809 5805 5802 5799 5795 5792 5787 5784 5781 5779 5778 5777 5776 5775 5772 5770 5768 5767 5765 5763 5761 5760 5758 5757 5756 5756 5754 5753 5750 5744 5741 5742 5745
5856 5851 5847 5842 5838 5834 5830 5825 5817 5811 5808 5805 5801 5799 5795 5792 5789 5785 5782 5780 5778 5777 5776 5774 5771 5768 5766 5765 5763 5760 5758 5757 5755 5755 5753 5752 5752 5752 5749 5745 5739 5735 5737
5855 5851 5847 5843 5838 5834 5829 5825 5817 5811 5807 5804 5801 5797 5794 5791 5788 5786 5783 5780 5778 5777 5774 5772 5769 5766 5764 5761 5760 5757 5755 5754 5752 5750 5749 5748 5748 5748 5748 5746 5742 5733 5726
5852 5850 5847 5843 5839 5835 5831 5826 5818 5811 5807 5804 5800 5797 5793 5790 5787 5785 5781 5779 5776 5774 5771 5769 5766 5763 5761 5759 5756 5754 5752 5750 5748 5747 5745 5744 5744 5744 5744 5743 5741 5737 5730
5847 5845 5844 5842 5838 5834 5830 5823 5817 5811 5806 5802 5799 5796 5792 5789 5785 5782 5779 5777 5774 5770 5767 5765 5763 5760 5757 5755 5752 5750 5749 5746 5744 5743 5742 5740 5739 5738 5737 5738 5737 5734 5730
5846 5843 5841 5837 5834 5830 5826 5820 5816 5811 5806 5801 5797 5793 5789 5785 5782 5779 5777 5774 5771 5768 5765 5762 5759 5756 5754 5751 5749 5746 5744 5742 5740 5738 5736 5735 5735 5733 5731 5730 5729 5728 5728
5839 5836 5835 5831 5828 5825 5821 5817 5813 5810 5806 5800 5794 5789 5785 5782 5779 5776 5774 5771 5768 5765 5762 5759 5755 5752 5750 5747 5745 5742 5740 5738 5736 5734 5732 5730 5728 5726 5725 5724 5723 5722 5723
5830 5831 5828 5826 5823 5820 5817 5814 5811 5809 5804 5798 5792 5786 5783 5780 5777 5774 5771 5768 5765 5761 5758 5755 5752 5749 5746 5743 5740 5738 5736 5733 5732 5730 5728 5725 5723 5721 5720 5719 5716 5716 5715
5822 5824 5821 5819 5817 5814 5811 5809 5806 5804 5801 5794 5788 5784 5781 5779 5775 5772 5768 5764 5761 5759 5755 5751 5748 5745 5742 5739 5736 5733 5732 5728 5726 5725 5724 5722 5719 5716 5714 5713 5710 5709 5707
5816 5817 5814 5812 5809 5808 5806 5803 5801 5799 5796 5790 5785 5782 5779 5775 5771 5768 5764 5760 5756 5754 5751 5747 5744 5741 5739 5735 5732 5729 5727 5724 5722 5720 5718 5717 5714 5711 5709 5707 5705 5703 5701
5812 5810 5808 5805 5803 5803 5802 5798 5796 5794 5789 5784 5781 5778 5774 5770 5767 5764 5760 5756 5752 5750 5747 5744 5741 5737 5733 5731 5728 5725 5722 5720 5718 5716 5713 5713 5711 5707 5703 5701 5700 5698 5697
5808 5807 5804 5802 5800 5799 5797 5795 5793 5788 5784 5779 5776 5773 5769 5765 5763 5760 5756 5752 5749 5745 5742 5740 5737 5733 5729 5726 5722 5719 5717 5716 5714 5712 5708 5706 5703 5701 5697 5695 5694 5693 5692
5806 5803 5803 5801 5797 5794 5792 5789 5785 5782 5778 5774 5771 5769 5766 5761 5758 5754 5751 5748 5745 5741 5738 5735 5732 5728 5724 5720 5717 5713 5712 5710 5708 5707 5704 5701 5697 5694 5691 5689 5688 5686 5685
5801 5799 5798 5795 5791 5788 5787 5782 5778 5775 5771 5769 5767 5765 5762 5758 5754 5750 5747 5744 5741 5737 5734 5731 5728 5724 5719 5715 5711 5708 5706 5704 5702 5700 5698 5695 5692 5687 5684 5682 5681 5679 5678
5793 5793 5791 5786 5783 5781 5779 5773 5770 5768 5767 5765 5762 5759 5757 5754 5751 5747 5743 5740 5736 5732 5729 5725 5723 5720 5715 5710 5707 5703 5701 5698 5696 5694 5693 5690 5686 5682 5679 5676 5675 5674 5672
5785 5784 5781 5777 5776 5776 5772 5766 5763 5764 5762 5759 5755 5753 5750 5749 5747 5741 5737 5734 5730 5726 5722 5718 5716 5714 5710 5706 5701 5697 5694 5692 5690 5689 5688 5685 5681 5678 5675 5672 5671 5669 5667
5775 5775 5772 5768 5767 5768 5766 5759 5758 5758 5755 5751 5748 5746 5745 5743 5741 5736 5732 5727 5724 5720 5716 5713 5710 5708 5706 5701 5696 5692 5689 5686 5684 5684 5681 5678 5676 5673 5671 5669 5666 5664 5662
5765 5765 5763 5758 5757 5758 5757 5755 5753 5751 5748 5744 5742 5740 5738 5736 5734 5731 5728 5723 5719 5715 5711 5708 5705 5702 5699 5695 5690 5686 5683 5680 5678 5676 5675 5673 5671 5669 5666 5664 5662 5661 5659
5756 5755 5752 5749 5748 5749 5747 5748 5746 5744 5740 5737 5735 5734 5732 5730 5727 5724 5721 5719 5715 5711 5706 5705 5702 5696 5692 5687 5683 5680 5678 5675 5672 5669 5668 5668 5667 5665 5663 5661 5659 5656 5654
5743 5742 5741 5740 5740 5739 5738 5738 5738 5736 5732 5729 5727 5726 5726 5724 5721 5717 5713 5710 5707 5703 5700 5698 5694 5691 5687 5682 5678 5675 5672 5669 5666 5663 5663 5662 5662 5660 5657 5655 5652 5650 5648